Stündliche Wetter Cazin

Heute, 23 Oktober, Freitag

Zeit Temperatur Niederschläge Wind Luftdruck Luftfeuchtigkeit
00:00 +9°C° 0 mm 2 m/S 729 mmHg 88%
01:00 +9°C° 0 mm 2 m/S 729 mmHg 87%
02:00 +8°C° 0 mm 2 m/S 728 mmHg 88%
03:00 +8°C° 0 mm 2 m/S 728 mmHg 89%
04:00 +8°C° 0 mm 2 m/S 728 mmHg 89%
05:00 +8°C° 0 mm 2 m/S 728 mmHg 89%
06:00 +9°C° 0 mm 2 m/S 728 mmHg 89%
07:00 +9°C° 0 mm 2 m/S 728 mmHg 89%
08:00 +12°C° 0 mm 2 m/S 728 mmHg 81%
09:00 +15°C° 0 mm 2 m/S 728 mmHg 74%
10:00 +17°C° 0 mm 2 m/S 728 mmHg 66%
11:00 +18°C° 0 mm 3 m/S 728 mmHg 64%
12:00 +19°C° 0 mm 3 m/S 728 mmHg 62%
13:00 +20°C° 0 mm 3 m/S 727 mmHg 59%
14:00 +19°C° 0 mm 3 m/S 727 mmHg 64%
15:00 +18°C° 0 mm 2 m/S 727 mmHg 69%
16:00 +17°C° 0 mm 2 m/S 726 mmHg 73%
17:00 +15°C° 0 mm 2 m/S 726 mmHg 77%
18:00 +14°C° 0 mm 2 m/S 726 mmHg 81%
19:00 +13°C° 0 mm 2 m/S 726 mmHg 85%
20:00 +13°C° 0 mm 2 m/S 726 mmHg 84%
21:00 +12°C° 0 mm 2 m/S 726 mmHg 83%
22:00 +12°C° 0 mm 2 m/S 726 mmHg 82%
23:00 +12°C° 0 mm 2 m/S 726 mmHg 81%

Morgen, 24 Oktober, Samstag

Zeit Temperatur Niederschläge Wind Luftdruck Luftfeuchtigkeit
00:00 +12°C° 0 mm 2 m/S 726 mmHg 80%
01:00 +12°C° 0 mm 2 m/S 726 mmHg 79%
02:00 +12°C° 0 mm 2 m/S 726 mmHg 77%
03:00 +12°C° 0 mm 2 m/S 726 mmHg 75%
04:00 +13°C° 0 mm 2 m/S 725 mmHg 73%
05:00 +13°C° 0 mm 2 m/S 726 mmHg 74%
06:00 +13°C° 0 mm 2 m/S 726 mmHg 74%
07:00 +13°C° 0 mm 1 m/S 726 mmHg 75%
08:00 +14°C° 0.1 mm 1 m/S 726 mmHg 74%
09:00 +16°C° 0.1 mm 1 m/S 726 mmHg 72%
10:00 +16°C° 0.1 mm 0 m/S 727 mmHg 71%
11:00 +18°C° 1.1 mm 1 m/S 726 mmHg 75%
12:00 +18°C° 1.1 mm 1 m/S 726 mmHg 79%
13:00 +16°C° 1.1 mm 1 m/S 726 mmHg 83%
14:00 +16°C° 1.5 mm 1 m/S 726 mmHg 87%
15:00 +15°C° 1.5 mm 1 m/S 726 mmHg 91%
16:00 +14°C° 1.5 mm 1 m/S 726 mmHg 94%
17:00 +14°C° 0.9 mm 1 m/S 726 mmHg 95%
18:00 +12°C° 0.9 mm 0 m/S 726 mmHg 95%
19:00 +12°C° 0.9 mm 0 m/S 726 mmHg 96%
20:00 +12°C° 0.8 mm 0 m/S 726 mmHg 96%
21:00 +13°C° 0.8 mm 1 m/S 726 mmHg 97%
22:00 +13°C° 0.8 mm 1 m/S 726 mmHg 97%
23:00 +13°C° 1 mm 1 m/S 726 mmHg 97%

übermorgen, 25 Oktober, Sonntag

Zeit Temperatur Niederschläge Wind Luftdruck Luftfeuchtigkeit
00:00 +12°C° 1 mm 1 m/S 726 mmHg 98%
01:00 +12°C° 1 mm 1 m/S 726 mmHg 98%
02:00 +12°C° 0.6 mm 1 m/S 726 mmHg 98%
03:00 +12°C° 0.6 mm 1 m/S 726 mmHg 98%
04:00 +12°C° 0.6 mm 1 m/S 725 mmHg 98%
05:00 +11°C° 0 mm 1 m/S 725 mmHg 98%
06:00 +11°C° 0 mm 1 m/S 725 mmHg 98%
07:00 +11°C° 0 mm 1 m/S 725 mmHg 98%
08:00 +12°C° 0 mm 1 m/S 725 mmHg 94%
09:00 +13°C° 0 mm 1 m/S 725 mmHg 91%
10:00 +14°C° 0 mm 1 m/S 725 mmHg 87%
11:00 +14°C° 0 mm 1 m/S 725 mmHg 84%
12:00 +15°C° 0 mm 1 m/S 725 mmHg 81%
13:00 +15°C° 0 mm 1 m/S 724 mmHg 78%
14:00 +14°C° 0 mm 0 m/S 724 mmHg 79%
15:00 +14°C° 0 mm 0 m/S 724 mmHg 81%
16:00 +13°C° 0 mm 0 m/S 723 mmHg 82%
17:00 +12°C° 0 mm 0 m/S 723 mmHg 84%
18:00 +12°C° 0 mm 0 m/S 723 mmHg 87%
19:00 +11°C° 0 mm 0 m/S 723 mmHg 89%
20:00 +10°C° 0 mm 0 m/S 723 mmHg 90%
21:00 +10°C° 0 mm 0 m/S 723 mmHg 91%
22:00 +9°C° 0 mm 0 m/S 723 mmHg 93%
23:00 +10°C° 0 mm 1 m/S 722 mmHg 93%

, 26 Oktober, Montag

Zeit Temperatur Niederschläge Wind Luftdruck Luftfeuchtigkeit
00:00 +9°C° 0 mm 1 m/S 722 mmHg 93%
01:00 +9°C° 0 mm 1 m/S 722 mmHg 93%
02:00 +9°C° 0 mm 1 m/S 721 mmHg 93%
03:00 +9°C° 0 mm 1 m/S 721 mmHg 93%
04:00 +9°C° 0 mm 1 m/S 721 mmHg 93%
05:00 +9°C° 0 mm 1 m/S 720 mmHg 93%
06:00 +9°C° 0 mm 1 m/S 720 mmHg 93%
07:00 +9°C° 0 mm 1 m/S 720 mmHg 93%
08:00 +11°C° 0 mm 1 m/S 720 mmHg 86%
09:00 +14°C° 0 mm 2 m/S 720 mmHg 80%
10:00 +16°C° 0 mm 2 m/S 720 mmHg 73%
11:00 +17°C° 0 mm 2 m/S 720 mmHg 70%
12:00 +17°C° 0 mm 3 m/S 720 mmHg 67%
13:00 +18°C° 0 mm 3 m/S 720 mmHg 63%
14:00 +17°C° 0.1 mm 3 m/S 719 mmHg 68%
15:00 +17°C° 0.1 mm 2 m/S 719 mmHg 72%
16:00 +16°C° 0.1 mm 2 m/S 719 mmHg 77%
17:00 +14°C° 0 mm 2 m/S 718 mmHg 81%
18:00 +13°C° 0 mm 2 m/S 718 mmHg 86%
19:00 +12°C° 0 mm 1 m/S 718 mmHg 91%
20:00 +12°C° 0 mm 2 m/S 718 mmHg 91%
21:00 +12°C° 0 mm 2 m/S 718 mmHg 91%
22:00 +10°C° 0 mm 2 m/S 718 mmHg 92%
23:00 +12°C° 0 mm 2 m/S 718 mmHg 91%

26 Oktober, Montag

Zeit Temperatur Niederschläge Wind Luftdruck Luftfeuchtigkeit
00:00 +9°C° 0 mm 1 m/S 722 mmHg 93%
01:00 +9°C° 0 mm 1 m/S 722 mmHg 93%
02:00 +9°C° 0 mm 1 m/S 721 mmHg 93%
03:00 +9°C° 0 mm 1 m/S 721 mmHg 93%
04:00 +9°C° 0 mm 1 m/S 721 mmHg 93%
05:00 +9°C° 0 mm 1 m/S 720 mmHg 93%
06:00 +9°C° 0 mm 1 m/S 720 mmHg 93%
07:00 +9°C° 0 mm 1 m/S 720 mmHg 93%
08:00 +11°C° 0 mm 1 m/S 720 mmHg 86%
09:00 +14°C° 0 mm 2 m/S 720 mmHg 80%
10:00 +16°C° 0 mm 2 m/S 720 mmHg 73%
11:00 +17°C° 0 mm 2 m/S 720 mmHg 70%
12:00 +17°C° 0 mm 3 m/S 720 mmHg 67%
13:00 +18°C° 0 mm 3 m/S 720 mmHg 63%
14:00 +17°C° 0.1 mm 3 m/S 719 mmHg 68%
15:00 +17°C° 0.1 mm 2 m/S 719 mmHg 72%
16:00 +16°C° 0.1 mm 2 m/S 719 mmHg 77%
17:00 +14°C° 0 mm 2 m/S 718 mmHg 81%
18:00 +13°C° 0 mm 2 m/S 718 mmHg 86%
19:00 +12°C° 0 mm 1 m/S 718 mmHg 91%
20:00 +12°C° 0 mm 2 m/S 718 mmHg 91%
21:00 +12°C° 0 mm 2 m/S 718 mmHg 91%
22:00 +10°C° 0 mm 2 m/S 718 mmHg 92%
23:00 +12°C° 0 mm 2 m/S 718 mmHg 91%

27 Oktober, Dienstag

Zeit Temperatur Niederschläge Wind Luftdruck Luftfeuchtigkeit
00:00 +12°C° 0 mm 2 m/S 718 mmHg 90%
01:00 +12°C° 0 mm 2 m/S 717 mmHg 89%
02:00 +12°C° 0 mm 2 m/S 717 mmHg 90%
03:00 +10°C° 0 mm 2 m/S 717 mmHg 90%
04:00 +10°C° 0 mm 2 m/S 717 mmHg 90%
05:00 +12°C° 0.2 mm 2 m/S 717 mmHg 89%
06:00 +12°C° 0.2 mm 2 m/S 717 mmHg 88%
07:00 +11°C° 0.2 mm 3 m/S 717 mmHg 87%
08:00 +12°C° 0.7 mm 2 m/S 718 mmHg 86%
09:00 +12°C° 0.7 mm 2 m/S 718 mmHg 85%
10:00 +13°C° 0.7 mm 2 m/S 718 mmHg 85%
11:00 +12°C° 0.9 mm 2 m/S 718 mmHg 86%
12:00 +11°C° 0.9 mm 1 m/S 718 mmHg 87%
13:00 +11°C° 0.9 mm 1 m/S 718 mmHg 89%
14:00 +10°C° 1.1 mm 1 m/S 718 mmHg 91%
15:00 +10°C° 1.1 mm 1 m/S 718 mmHg 93%
16:00 +10°C° 1.1 mm 1 m/S 718 mmHg 94%
17:00 +10°C° 0.5 mm 1 m/S 718 mmHg 94%
18:00 +10°C° 0.5 mm 1 m/S 718 mmHg 95%
19:00 +9°C° 0.5 mm 0 m/S 718 mmHg 95%
20:00 +9°C° 0.4 mm 0 m/S 718 mmHg 95%
21:00 +10°C° 0.4 mm 1 m/S 718 mmHg 96%
22:00 +10°C° 0.4 mm 1 m/S 718 mmHg 96%
23:00 +10°C° 0.2 mm 1 m/S 718 mmHg 97%

28 Oktober, Mittwoch

Zeit Temperatur Niederschläge Wind Luftdruck Luftfeuchtigkeit
00:00 +10°C° 0.2 mm 1 m/S 718 mmHg 97%
01:00 +10°C° 0.2 mm 1 m/S 718 mmHg 97%
02:00 +10°C° 0.3 mm 1 m/S 718 mmHg 97%
03:00 +10°C° 0.3 mm 1 m/S 718 mmHg 97%
04:00 +10°C° 0.3 mm 1 m/S 717 mmHg 97%
05:00 +10°C° 0.5 mm 1 m/S 718 mmHg 97%
06:00 +10°C° 0.5 mm 1 m/S 718 mmHg 98%
07:00 +9°C° 0.5 mm 2 m/S 718 mmHg 98%
08:00 +9°C° 1.3 mm 2 m/S 718 mmHg 98%
09:00 +10°C° 1.3 mm 2 m/S 718 mmHg 98%
10:00 +10°C° 1.3 mm 3 m/S 719 mmHg 98%
11:00 +11°C° 1 mm 3 m/S 719 mmHg 97%
12:00 +11°C° 1 mm 3 m/S 719 mmHg 97%
13:00 +11°C° 1 mm 3 m/S 720 mmHg 96%
14:00 +11°C° 1.4 mm 3 m/S 720 mmHg 96%
15:00 +11°C° 1.4 mm 3 m/S 720 mmHg 96%
16:00 +11°C° 1.4 mm 3 m/S 721 mmHg 96%
17:00 +12°C° 0.4 mm 2 m/S 721 mmHg 96%
18:00 +12°C° 0.4 mm 2 m/S 722 mmHg 97%
19:00 +12°C° 0.4 mm 1 m/S 722 mmHg 97%
20:00 +11°C° 0 mm 1 m/S 723 mmHg 96%
21:00 +11°C° 0 mm 1 m/S 723 mmHg 95%
22:00 +11°C° 0 mm 1 m/S 723 mmHg 94%
23:00 +10°C° 0 mm 1 m/S 724 mmHg 93%
Mehr zeigen